Burnet, TX

6:16 PM CDT on April 24, 2017 (GMT -0500)
Burnet Municipal-Craddock

Weather History for KBMQ - July, 2012

Change the Weather History Date:

Saturday, July 21, 2012

  Actual Average Record
Temperature  
Mean Temperature 88 °F -  
Max Temperature 102 °F 92 °F 102 °F (2000)
Min Temperature 75 °F 70 °F 71 °F (1999)
Cooling Degree Days 22    
Growing Degree Days 38 (Base 50)    
Moisture  
Dew Point 64 °F    
Average Humidity 49    
Maximum Humidity 76    
Minimum Humidity 25    
Precipitation  
Precipitation 0.00 in - - ()
Sea Level Pressure  
Sea Level Pressure 29.96 in    
Wind  
Wind Speed 4 mph (SSW)    
Max Wind Speed 10 mph    
Max Gust Speed -    
Visibility 10 miles    
Events      
Averages and records for this station are not official NWS values.
T = Trace of Precipitation, MM = Missing Value Source: NWS Daily Summary

Daily Weather History Graph

Daily Weather History Graph

Search for Another Location

Airport or City:

Trip Planner

Search our weather history database for the weather conditions in past years. The results will help you decide how hot, cold, wet, or windy it might be!

Date:

Astronomy

Jul. 21, 2012 Rise Set
Actual Time 6:44 AM CDT 8:34 PM CDT
Civil Twilight 6:17 AM CDT 9:01 PM CDT
Nautical Twilight 5:45 AM CDT 9:33 PM CDT
Astronomical Twilight 5:10 AM CDT 10:07 PM CDT
Moon 9:11 AM CDT (7/21) 10:04 PM CDT (7/21)
Length of Visible Light 14h 43m
Length of Day
13h 50m
Waxing Crescent, 7% of the Moon is Illuminated
Jul 21
Waxing Crescent
Jul 26
First Quarter
Aug 1
Full
Aug 9
Last Quarter
Aug 17
New

Hourly Weather History & Observations

Time (CDT) Temp. Heat Index Dew Point Humidity Pressure Visibility Wind Dir Wind Speed Gust Speed Precip Events Conditions
12:53 AM 81.0 °F 82.5 °F 64.0 °F 56% 30.00 in 10.0 mi Calm Calm - N/A   Clear
1:53 AM 80.1 °F 81.7 °F 64.0 °F 58% 30.00 in 10.0 mi Calm Calm - N/A   Clear
2:53 AM 79.0 °F - 64.9 °F 62% 29.99 in 10.0 mi South 3.5 mph - N/A   Clear
3:53 AM 77.0 °F - 64.9 °F 66% 29.98 in 10.0 mi Calm Calm - N/A   Clear
4:53 AM 77.0 °F - 66.9 °F 71% 29.99 in 10.0 mi WSW 3.5 mph - N/A   Clear
5:53 AM 75.9 °F - 66.9 °F 74% 29.99 in 10.0 mi Calm Calm - N/A   Clear
6:53 AM 75.9 °F - 68.0 °F 76% 30.00 in 8.0 mi South 3.5 mph - N/A   Clear
7:53 AM 79.0 °F - 69.1 °F 72% 30.01 in 8.0 mi SW 5.8 mph - N/A   Clear
8:53 AM 82.9 °F 86.5 °F 69.1 °F 63% 30.02 in 8.0 mi WSW 5.8 mph - N/A   Clear
9:53 AM 87.1 °F 89.2 °F 66.0 °F 49% 30.02 in 9.0 mi SW 10.4 mph - N/A   Clear
10:53 AM 89.1 °F 91.3 °F 66.0 °F 46% 30.02 in 10.0 mi WSW 5.8 mph - N/A   Clear
11:53 AM 93.0 °F 96.4 °F 66.9 °F 42% 30.01 in 10.0 mi Variable 6.9 mph - N/A   Clear
12:53 PM 95.0 °F 97.0 °F 64.0 °F 36% 30.00 in 10.0 mi North - - N/A   Clear
1:53 PM 98.1 °F 99.6 °F 63.0 °F 31% 29.98 in 10.0 mi Variable 4.6 mph - N/A   Clear
2:53 PM 98.1 °F 99.1 °F 62.1 °F 30% 29.95 in 10.0 mi Variable 3.5 mph - N/A   Partly Cloudy
3:53 PM 100.9 °F 102.1 °F 61.0 °F 27% 29.92 in 10.0 mi Variable 5.8 mph - N/A   Clear
5:53 PM 100.0 °F 99.7 °F 57.9 °F 25% 29.89 in 10.0 mi Variable 5.8 mph - N/A   Clear
6:53 PM 99.0 °F 98.1 °F 57.9 °F 25% 29.89 in 10.0 mi SSE 10.4 mph - N/A   Clear
7:53 PM 96.1 °F 96.4 °F 61.0 °F 31% 29.88 in 10.0 mi SSE 8.1 mph - N/A   Clear
8:53 PM 91.9 °F 93.3 °F 64.0 °F 39% 29.88 in 10.0 mi SSE 6.9 mph - N/A   Unknown
9:53 PM 89.1 °F 89.3 °F 62.1 °F 40% 29.89 in 10.0 mi South 5.8 mph - N/A   Clear
10:53 PM 87.1 °F 88.3 °F 64.0 °F 46% 29.92 in 10.0 mi South 5.8 mph - N/A   Clear
11:53 PM 84.9 °F 86.6 °F 64.9 °F 51% 29.93 in 10.0 mi South 9.2 mph - N/A   Clear